Home   Weather   Moreno Valley   Past weeks

Flag for USA Past Weather in Moreno Valley, California, USA — Yesterday and Last 2 Weeks

Now
52 °F

Passing clouds.


Feels Like: 52 °F
Forecast: 42 / 62 °F
Wind: No wind

Location: Riverside / March Air Force Base

Current Time: Jan 16, 2017 at 9:33:23 am

Latest Report: Jan 16, 2017 at 9:07 am


Visibility: 10 mi

Pressure: 30.09 "Hg

Humidity: 100%

Dew Point: 52 °F

Location of Moreno ValleyLocation

Past Weather in Moreno Valley — Graph

°F

Moreno Valley Temperature Yesterday

Maximum temperature yesterday: 58 °F (at 2:58 pm)
Minimum temperature yesterday: 36 °F (at 6:32 am)
Average temperature yesterday: 50 °F

High & Low Weather Summary for the Past Weeks

 TemperatureHumidityPressure
High74 °F (Jan 8, 12:58 pm)100% (Jan 1, 8:58 am)30.24 "Hg (Jan 1, 8:58 am)
Low36 °F (Jan 15, 6:32 am)34% (Jan 8, 12:58 pm)29.90 "Hg (Jan 1, 11:58 am)
Average51 °F92%30.06 "Hg
* Reported Jan 1 8:58 am — Jan 16 8:13 am, Moreno Valley, Weather by CustomWeather, © 2017

Note: Actual official high and low records may vary slightly from our data, if they occured in-between our weather recording intervals... More about our weather records

Advertising

Moreno Valley Weather History for the Previous 24 Hours

Scroll right to see more
 ConditionsComfort  
Time TempWeatherWind HumidityBarometerVisibility
8:13 am
Mon, Jan 16
50 °FPartly sunny.No wind100%30.07 "Hg10 mi
7:58 am49 °FOvercast.No wind100%30.07 "Hg10 mi
7:18 am48 °FPartly sunny.No wind100%30.06 "Hg10 mi
6:58 am49 °FPartly sunny.3 mph100%30.05 "Hg10 mi
6:28 am48 °FOvercast.No wind100%30.04 "Hg10 mi
6:13 am50 °FOvercast.No wind100%30.04 "Hg10 mi
5:58 am49 °FOvercast.No wind100%30.03 "Hg10 mi
5:28 am48 °FOvercast.No wind100%30.03 "Hg10 mi
4:58 am47 °FOvercast.No wind100%30.02 "Hg7 mi
4:03 am46 °FFog.No wind100%30.02 "Hg6 mi
3:58 am46 °FPassing clouds.3 mph100%30.02 "Hg7 mi
3:08 am46 °FPartly cloudy.No wind100%30.04 "Hg10 mi
2:58 am48 °FPassing clouds.No wind100%30.03 "Hg10 mi
2:15 am46 °FPassing clouds.No wind100%30.04 "Hg10 mi
1:58 am46 °FPassing clouds.No wind100%30.05 "Hg10 mi
1:20 am48 °FPassing clouds.No wind100%30.05 "Hg10 mi
12:58 am49 °FPassing clouds.No wind100%30.04 "Hg10 mi
11:58 pm
Sun, Jan 15
50 °FMostly cloudy.No wind100%30.05 "Hg10 mi
11:23 pm50 °FMostly cloudy.No wind100%30.06 "Hg10 mi
10:58 pm50 °FOvercast.No wind100%30.06 "Hg10 mi
10:23 pm50 °FOvercast.3 mph100%30.06 "Hg10 mi
9:58 pm50 °FOvercast.No wind100%30.07 "Hg10 mi
9:23 pm50 °FPassing clouds.3 mph100%30.06 "Hg10 mi
9:03 pm50 °FPassing clouds.3 mph100%30.06 "Hg10 mi
8:43 pm50 °FPartly cloudy.3 mph100%30.06 "Hg10 mi
8:28 pm50 °FPassing clouds.3 mph100%30.05 "Hg10 mi
8:18 pm48 °FPassing clouds.No wind100%30.05 "Hg10 mi
7:58 pm49 °FPassing clouds.5 mph100%30.06 "Hg10 mi
7:33 pm50 °FPartly cloudy.6 mph100%30.05 "Hg10 mi
6:58 pm51 °FPassing clouds.3 mph100%30.05 "Hg10 mi
5:58 pm54 °FPassing clouds.3 mph96%30.03 "Hg10 mi
5:18 pm55 °FMostly cloudy.No wind82%30.02 "Hg10 mi
5:03 pm57 °FPassing clouds.3 mph77%30.02 "Hg10 mi
3:58 pm57 °FScattered clouds.3 mph77%30.02 "Hg10 mi
3:13 pm57 °FMore clouds than sun.3 mph77%30.02 "Hg10 mi
2:58 pm58 °FPartly sunny.No wind76%30.02 "Hg10 mi
2:38 pm57 °FScattered clouds.No wind77%30.02 "Hg10 mi
2:03 pm57 °FBroken clouds.3 mph77%30.02 "Hg10 mi
1:58 pm57 °FPartly sunny.No wind75%30.02 "Hg10 mi
1:18 pm57 °FMostly cloudy.6 mph77%30.02 "Hg10 mi
12:58 pm57 °FOvercast.3 mph76%30.02 "Hg10 mi
12:19 pm57 °FPartly sunny.5 mph77%30.04 "Hg10 mi
11:58 am56 °FScattered clouds.8 mph83%30.03 "Hg10 mi
11:13 am55 °FScattered clouds.5 mph94%30.07 "Hg10 mi
10:58 am54 °FOvercast.6 mph100%30.07 "Hg10 mi
10:18 am54 °FOvercast.9 mph100%30.09 "Hg10 mi
9:58 am52 °FOvercast.10 mph100%30.09 "Hg10 mi
9:33 am52 °FPartly sunny.6 mph100%30.08 "Hg10 mi
9:11 am48 °FBroken clouds.3 mph100%30.07 "Hg10 mi
Weather by CustomWeather, © 2017

See weather overviewHow to use our weather pages